Bandon, OR

1:20 AM PDT on July 31, 2015 (GMT -0700)
SW Bandon | | Change Station
CLOSE
Current Station
Personal Weather Station
Location: Bandon, OR
Elevation: 82 ft
Nearby Weather Stations
Active Advisory: Fire Weather Warning Active Notice: Record Report

Elev 82 ft 43.12 °N, 124.43 °W | Updated 5 seconds ago

Clear
Clear
53.8 °F
Feels Like 53.8 °F
N
3.0
Wind Variable Wind from NNW
Gusts 3.0 mph

Today
High -- | Low -- °F
--% Chance of Precip.
Yesterday
High -- | Low -- °F
Precip. -- in
6:07 AM 8:40 PM
Full, 100% visible
Pressure 30.06 in
Visibility 10.0 miles
Clouds Clear
Dew Point 53 °F
Humidity 96%
Rainfall 0.00 in
Snow Depth Not available.
UV 0 out of 12
Pollen 4.20 out of 12
Air Quality Not available.
Flu Activity Not available.
METAR KOTH 310815Z 36003KT 10SM CLR 14/14 A3006 RMK AO1

More Conditions Fewer Conditions

Pressure 30.06 in
Visibility 10.0 miles
Clouds Clear
Dew Point 53 °F
Humidity 96%
Rainfall 0.00 in
Snow Depth Not available.
UV 0 out of 12
Pollen 4.20 out of 12
Air Quality Not available.
Flu Activity Not available.
METAR KOTH 310815Z 36003KT 10SM CLR 14/14 A3006 RMK AO1

More Conditions Fewer Conditions

10-Day Weather Forecast

×

Almanac

Astronomy

Jul. 31, 2015 Rise Set
Actual Time
Civil Twilight
Nautical Twilight
Astronomical Twilight
Moon
Length of Visible Light
Length of Day
Tomorrow will be .
, % of the Moon is Illuminated

Today's Extremes

State Highs State Lows

Community

WunderPhotos

Upload Photos

1,842,633 photos uploaded!

WunderBlogs® & News

Nearby

Air Quality

  Air Quality AQ Index Pollutant
Not available.

Snow Depth

Station Depth Elevation

Earthquake Activity

City Distance Mag. Time & Date
Minimum magnitude displayed is 2.5.

Coastal Water Temperatures

Place Temperature

Stations

Nearby Weather Stations

Station Location Temp. Windchill Dew Point Humidity Wind Precip. Elev Updated Type
                   
Fire Weather Warning
Statement as of 4:23 PM PDT on July 30, 2015

... Red flag warning now in effect until 9 PM PDT Friday for a
Haines index of 6 over the Cable Crossing wildfire in Oregon fire
weather zone 616... ...

* Haines index: 6 (high).

* Impacts: very dry and unstable conditions will support extreme
fire behavior. Plume domination is possible with locally-
generated erratic and gusty winds. Spotting could be a problem.

* Affected area: in and around the Cable Crossing fire and the
Stouts fire in fire weather zone 616.

* Counties affected: north central Douglas County.

* Humidity: minimum of 10-15 percent.

Precautionary/preparedness actions...

Wildfire crews should prepare for the potential of plume dominated
fire Thursday afternoon.